Weather History for KAVL - August, 2013

Change the Weather History Date:

Sunday, August 4, 2013

  Actual Average Record
Temperature  
Mean Temperature 72 °F 74 °F  
Max Temperature 80 °F 84 °F 93 °F (2008)
Min Temperature 63 °F 64 °F 49 °F (1998)
Degree Days  
Heating Degree Days 0 0  
Month to date heating degree days 0 0  
Since 1 June heating degree days 0 14  
Since 1 July heating degree days 0 0  
Cooling Degree Days 7 9  
Month to date cooling degree days 32 36  
Year to date cooling degree days 555 546  
Since 1 June cooling degree days 504 488  
Growing Degree Days 22 (Base 50)    
Moisture  
Dew Point 63 °F    
Average Humidity 77    
Maximum Humidity 100    
Minimum Humidity 54    
Precipitation  
Precipitation 0.00 in 0.15 in 1.64 in (1890)
Month to date precipitation 0.57 0.56  
Year to date precipitation 52.35 27.77  
Snow  
Snow 0.00 in 0.00 in 0.00 in ()
Month to date snowfall 0.0 0.0  
Since 1 June snowfall 0.0 0.0  
Since 1 July snowfall 0.0 0.0  
Snow Depth 0.00 in    
Sea Level Pressure  
Sea Level Pressure 30.02 in    
Wind  
Wind Speed 8 mph (North)    
Max Wind Speed 22 mph    
Max Gust Speed 26 mph    
Visibility 10 miles    
Events      
T = Trace of Precipitation, MM = Missing Value Source: NWS Daily Summary

Daily Weather History Graph

Daily Weather History Graph

Search for Another Location

Airport or City:

Trip Planner

Search our weather history database for the weather conditions in past years. The results will help you decide how hot, cold, wet, or windy it might be!

Date:

Astronomy

Aug. 04, 2013 Rise Set
Actual Time 6:41 AM EDT 8:30 PM EDT
Civil Twilight 6:13 AM EDT 8:58 PM EDT
Nautical Twilight 5:39 AM EDT 9:31 PM EDT
Astronomical Twilight 5:04 AM EDT 10:07 PM EDT
Moon 4:41 AM EDT (8/4) 6:53 PM EDT (8/4)
Length of Visible Light 14h 45m
Length of Day
13h 49m
Waning Crescent, 5% of the Moon is Illuminated
Aug 4
Waning Crescent
Aug 6
New
Aug 14
First Quarter
Aug 20
Full
Aug 28
Last Quarter

Hourly Weather History & Observations

Time (EDT) Temp. Heat Index Dew Point Humidity Pressure Visibility Wind Dir Wind Speed Gust Speed Precip Events Conditions
12:54 AM 68.0 °F - 64.9 °F 90% 30.02 in 10.0 mi Calm Calm - N/A   Clear
1:54 AM 66.0 °F - 64.0 °F 93% 30.01 in 10.0 mi Calm Calm - N/A   Clear
2:54 AM 64.9 °F - 64.0 °F 97% 29.99 in 8.0 mi Calm Calm - N/A   Clear
3:54 AM 64.9 °F - 63.0 °F 93% 29.99 in 9.0 mi Calm Calm - N/A   Clear
4:54 AM 63.0 °F - 62.1 °F 97% 30.00 in 6.0 mi Calm Calm - N/A   Clear
5:07 AM 64.4 °F - 62.6 °F 94% 30.07 in 7.0 mi Calm Calm - N/A   Partly Cloudy
5:54 AM 64.9 °F - 63.0 °F 93% 30.00 in 9.0 mi North 5.8 mph - N/A   Clear
6:54 AM 66.0 °F - 64.0 °F 93% 30.01 in 9.0 mi North 5.8 mph - N/A   Mostly Cloudy
7:54 AM 69.1 °F - 64.9 °F 87% 30.01 in 10.0 mi NNW 9.2 mph - N/A   Partly Cloudy
8:54 AM 71.1 °F - 66.0 °F 84% 30.03 in 10.0 mi North 9.2 mph - N/A   Clear
9:54 AM 75.9 °F - 68.0 °F 76% 30.02 in 10.0 mi NNW 9.2 mph - N/A   Scattered Clouds
10:54 AM 79.0 °F - 64.9 °F 62% 30.01 in 10.0 mi NNW 15.0 mph 20.7 mph N/A   Clear
11:54 AM 79.0 °F - 64.9 °F 62% 30.01 in 10.0 mi North 15.0 mph 21.9 mph N/A   Partly Cloudy
12:54 PM 80.1 °F 81.7 °F 64.0 °F 58% 30.02 in 10.0 mi North 15.0 mph 24.2 mph N/A   Scattered Clouds
1:54 PM 79.0 °F - 63.0 °F 58% 30.01 in 10.0 mi North 15.0 mph 23.0 mph N/A   Scattered Clouds
2:54 PM 79.0 °F - 62.1 °F 56% 30.02 in 10.0 mi NNW 18.4 mph 24.2 mph N/A   Mostly Cloudy
3:54 PM 79.0 °F - 62.1 °F 56% 30.01 in 10.0 mi NNW 16.1 mph 24.2 mph N/A   Mostly Cloudy
4:54 PM 80.1 °F 81.2 °F 62.1 °F 54% 30.01 in 10.0 mi NNW 11.5 mph 19.6 mph N/A   Clear
5:54 PM 79.0 °F - 61.0 °F 54% 30.00 in 10.0 mi North 9.2 mph - N/A   Clear
6:54 PM 77.0 °F - 61.0 °F 58% 30.00 in 10.0 mi North 8.1 mph - N/A   Clear
7:54 PM 73.9 °F - 60.1 °F 62% 30.02 in 10.0 mi NE 3.5 mph - N/A   Clear
8:54 PM 73.0 °F - 59.0 °F 61% 30.03 in 10.0 mi North 5.8 mph - N/A   Clear
9:54 PM 69.1 °F - 60.1 °F 73% 30.05 in 10.0 mi North 3.5 mph - N/A   Clear
10:54 PM 66.9 °F - 61.0 °F 81% 30.06 in 10.0 mi NNW 3.5 mph - N/A   Clear
11:54 PM 64.9 °F - 61.0 °F 87% 30.06 in 10.0 mi NNW 3.5 mph - N/A   Partly Cloudy